Regional Weather Roundup
Issued by NWS Wakefield, VA

Home | Current Version | Previous Version | Text Only | Print | Product List | Glossary Off
Versions: 1 2 3 4 5 6 7 8 9 10 11 12 13 14 15 16 17 18 19 20 21 22 23 24 25 26 27 28 29 30 31 32 33 34 35 36 37 38 39 40 41 42 43 44 45 46 47 48 49 50

000
ASUS41 KAKQ 282215
RWRAKQ

REGIONAL WEATHER ROUNDUP
NATIONAL WEATHER SERVICE WAKEFIELD VA
600 PM EDT FRI APR 28 2017

Note: "fair" indicates few or no clouds below 12,000 feet with no
significant weather and/or obstructions to visibility. * = Denotes
station may not report precipitation (e.g., rain,snow,etc.),
thunder or fog.

VAZ042-051-052>054-056-282300-
NORTHERN VIRGINIA

CITY           SKY/WX    TMP DP  RH WIND       PRES   REMARKS
WASH NATIONAL  MOSUNNY   81  63  54 S13       30.01R
DULLES         MOSUNNY   81  59  47 SE7       30.00S
FORT BELVOIR   SUNNY     82  62  51 SE7       30.00S
QUANTICO       SUNNY     78  66  66 SE13      30.01R
FREDERICKSBRG* MOSUNNY   86  62  44 S8        29.99S
STAFFORD*      MOSUNNY   82  62  50 SE6       30.03S
WARRENTON      SUNNY     85  56  37 SE7       29.99S
CULPEPER*      SUNNY     84  61  45 S7        30.00S
MANASSAS*        N/A     84  63  49 S9        30.00S
LEESBURG*      SUNNY     86  61  42 S7        30.00F
WINCHESTER     MOSUNNY   79  59  50 SE7       29.99S
FRONT ROYAL*   CLEAR     81  57  44 SE7       29.97S
LURAY*         CLOUDY    82  59  44 S7        29.99S
$$

VAZ048-049-060>072-079>083-282300-
CENTRAL AND SOUTH CENTRAL VIRGINIA

CITY           SKY/WX    TMP DP  RH WIND       PRES   REMARKS
RICHMOND       MOSUNNY   83  63  50 S13       30.01S
CHESTERFIELD*  FAIR     N/A N/A N/A SW8       30.02F
PETERSBURG*    SUNNY     84  62  47 SW7       30.03S
HANOVER        SUNNY     84  59  42 S12       30.03R
TAPPAHANNOCK*  MOSUNNY   86  54  33 S8        30.02S
QUINTON*       FAIR      85  64  48 S6        30.01S
CHARLOTTSVILLE CLOUDY    84  61  45 SW8       30.00S
GORDONSVILLE*  CLEAR     82  62  49 S5        30.00S
ORANGE*        MOSUNNY   81  59  47 S6        30.00S
LOUISA*          N/A     88  64  45 MISG      30.00S
BUMPASS*       FAIR      83  62  48 S5        30.01S
FARMVILLE*     SUNNY     85  64  50 S8        30.00F
CREWE*         FAIR      84  67  56 S5        30.01F
FORT PICKETT*  NOT AVBL
CHASE CITY*    FAIR      83  66  56 SE3       30.03S
CLARKSVILLE*   FAIR      84  70  61 S7        30.02F
SOUTH HILL*    MOSUNNY   83  70  63 SW6       30.09S
LAWRENCEVILLE* CLOUDY    84  69  60 S7        30.03S
EMPORIA*       MOSUNNY   82  68  61 S8        30.05S
$$

VAZ088>098-282300-
SOUTHEAST VIRGINIA

CITY           SKY/WX    TMP DP  RH WIND       PRES   REMARKS
NORFOLK        MOSUNNY   84  70  62 SW12G18   30.02F
VIRGINIA BEACH PTSUNNY   81  70  69 E3        30.02F
NORFOLK NAVAL  MOSUNNY   84  70  62 VRB3      30.04S
WEST POINT*    MOSUNNY   83  63  49 SW6       30.03S
SALUDA*        FAIR      83  71  67 S9        30.01S
NEWPORT NEWS   SUNNY     85  68  56 SW9       30.02S
LANGLEY AFB    SUNNY     82  71  71 SE7       30.03R
FORT EUSTIS    SUNNY     86  69  57 S3        30.00S
WILLIAMSBURG*  SUNNY     88  68  51 SW3       30.03S
HR EXEC AP*    FAIR      86  70  58 SW10      30.00S
FRANKLIN*      MOSUNNY   85  68  57 SW7       30.04R
US460-WAKEFLD  MOSUNNY   86  69  56 S9        30.03R
$$

VAZ020-022-025-037-045-282300-
WEST CENTRAL AND SOUTHWEST VIRGINIA

CITY           SKY/WX    TMP DP  RH WIND       PRES   REMARKS
STAUNTON*      PTSUNNY   78  57  47 S8        30.04S
WAYNESBORO*    PTCLDY    79  58  48 S7        30.03S
HOT SPRINGS VA CLOUDY    70  48  46 S12       30.15R
LYNCHBURG      SUNNY     81  59  47 S10G22    30.04R
DANVILLE       SUNNY     83  67  58 SW13G21   30.03R
SOUTH BOSTON*  FAIR      83  64  53 S7G16     30.03R
MARTINSVILLE   MOSUNNY   82  63  52 SW7       30.06S
ROANOKE        MOSUNNY   80  58  46 S15G24    30.04R
BLACKSBURG     SUNNY     79  58  49 S6G16     30.09S
DUBLIN*        SUNNY     79  54  40 S14       30.07S
MARION*        SUNNY     79  58  48 CALM      30.08R
HILLSVILLE*    SUNNY     74  61  63 S12G21    30.09S
RICHLANDS*     FAIR      82  51  33 S7        30.03S
WISE*          MOSUNNY   79  48  34 S14       30.04S
ABINGDON*      CLOUDY    85  55  35 CALM      30.00S
$$

MDZ021>025-VAZ099-100-282300-
SOUTHERN MARYLAND AND THE DELMARVA PENINSULA

CITY           SKY/WX    TMP DP  RH WIND       PRES   REMARKS
PATUXENT RIVER MOSUNNY   74  67  78 SE9       30.02S
BAY BRIDGE APT SUNNY     82  61  47 S8        30.02S
LEONARDTOWN    MOSUNNY   79  59  50 E5        30.04S
DOVER          SUNNY     78  71  79 SE9       30.02R
GEORGETOWN     PTSUNNY   83  63  50 SE13      30.03S
EASTON         MOSUNNY   82  59  44 SW7       30.07R
CAMBRIDGE      SUNNY     81  59  47 S5        30.03S
SALISBURY      SUNNY     82  64  54 SW7       30.03S
OCEAN CITY     SUNNY     69  64  84 SW8       30.04F
WALLOPS ISLAND SUNNY     72  68  87 S8        30.05S
ACCOMACK*      SUNNY     81  71  71 S8        30.04S
$$

NCZ012>017-030>032-282300-
NORTH CENTRAL AND EASTERN NORTH CAROLINA

CITY           SKY/WX    TMP DP  RH WIND       PRES   REMARKS
ROANOKE RAPIDS FAIR      84  70  61 S6        30.04S
RALEIGH        MOSUNNY   87  66  49 S10       30.04S
ELIZABETH CITY SUNNY     85  74  69 S9        30.05R
AHOSKIE*         N/A     83  71  67 S3        30.04S
EDENTON*       SUNNY     86  74  66 S9        30.05S
CURRITUCK*     SUNNY     86  70  58 S5        30.05S
KILL DEVIL HLS SUNNY     80  71  73 S3        30.06R
MANTEO         SUNNY     78  72  82 S20       30.08R
CAPE HATTERAS  PTSUNNY   78  72  81 SW9G18    30.12R HAZE
TARBORO*       NOT AVBL
GOLDSBORO      MOSUNNY   89  70  54 S9        30.03F
WASHINGTON     MOSUNNY   85  74  68 S8        30.06S
GREENVILLE     MOSUNNY   88  70  55 SW12      30.06S HAZE
NEW BERN       MOSUNNY   84  74  71 S8G20     30.09R
WILMINGTON     PTSUNNY   82  74  76 SW13      30.10S
$$

VAZ048-282300-
ELSEWHERE

CITY           SKY/WX    TMP DP  RH WIND       PRES   REMARKS
HARRISBURG PA  MOSUNNY   80  52  37 VRB3      29.99S
BALTIMORE      MOSUNNY   81  61  50 SE10      30.01R
ANNAPOLIS      SUNNY     77  60  55 SE10      30.02S
ANDREWS AFB    SUNNY     83  61  47 S6        30.01S
PHILADELPHIA   NOT AVBL
HENDERSON NC   SUNNY     81  66  60 S8        30.04S
GREENSBORO     MOSUNNY   82  66  58 SW14      30.05S
ROCKY MOUNT    MOSUNNY   87  67  51 S9        30.04S
$$

VAZ100-282300-
MARINE

STATION/POSITION TIME  TEMP    WIND        PRES    WAVE   SWELL
                       AIR SEA DIR/SP/G            HT/PER HT/PER
                 (UTC) (F)     (DEG/KT/KT) (MB)    (FT/S) (FT/S)
CAPE MAY NJ      2142   71 61  150/ 11/ 16 1016.5F
LEWES DE         2148          160/  9/ 13 1016.7F
15NM E FENWICK I 2150   58 55  130/  6/  8 1018.0F   4/ 8   3/ 8
OCEAN-CITY-INLET 2148          230/  9/ 12 1017.7F
WACHAPREAGUE VA  2142   73 73  130/  6/  8 1016.9F
THOMAS POINT MD  2200   76 61  160/ 10/ 10   N/A
GOOSES REEF MD   2200   69 59  210/  8/ 10 1017.3
COVE POINT MD    2142   70     180/  8/  9 1017.4S
SOLOMONS ISLAND  2142   71 64  130/ 10/ 11   N/A
BISHOPS HEAD MD  2142   70 70  150/  8/  9 1017.4R
PINEY POINT MD   2148          130/  9/  9   N/A
POTOMAC MD       2200   70 67  100/  6/  8 1015.8    0
CAMBRIDGE MD     2142   84 69                N/A
LEWISETTA VA     2142   69 67  120/  9/ 10 1016.2F
RAPPAHANNOCK LGT 2148          150/ 10/ 11 1017.5F
STINGRAY PT      2200   70 62  200/ 10/ 12 1017.1    1
YORK RVR RNG VA  2142   70     140/ 13/ 14 1016.2S
YORKTOWN VA      2142   74 67   30/  2/  5 1016.4S
JAMESTOWN VA     2200   83 71  200/  8/ 10   N/A
DOMINION TERM VA 2142   82        CALM     1017.0S
KIPTOPEKE VA     2148      67  160/  9/ 10   N/A
CHES BAY BRIDGE  2136   69 65  120/  9/ 10 1016.8F
CAPE HENRY VA    2136   69     110/  7/  9   N/A
WILLOUBY STN VA  2142   73     100/ 10/ 11 1017.9F
S CRANEY ISL VA  2142   86     230/  5/  9 1016.5F
CAPE HENRY BUOY  2142      68                N/A     3/ 7
1ST LANDING BUOY 2200   68 63              1016.9    1/ 5
CAPE CHARLES BUO 2151      65                N/A     3/ 8
64NM E OF VA BCH 2150   62 58  200/ 12/ 14 1018.8F   5/ 6   3/ 6
DUCK PIER NC     2136   81 58  200/ 13/ 16 1017.2S
44100 DUCK FRF   2135      64                N/A     4/ 6
44056 DUCK FRF   2130      63                N/A     3/ 8
OREGON INLET NC  2148          190/ 19/ 23 1018.7R
HATTERAS NC      2136   77 72  200/ 11/ 15 1019.6R
DIAMOND SHLS NC  2150   78 76  210/ 16/ 19 1020.0R   4/ 8   3/ 8
CAPE LOOKOUT NC  2200   76     210/ 11/ 15 1019.8R
$$



USA.gov is the U.S. government's official web portal to all federal, state and local government web resources and services.